Weather History for Lakeview AWS, OR

Change the Weather History Date:

Monday, September 30, 2013

  Actual Average Record
Temperature  
Mean Temperature 50 °F -  
Max Temperature 60 °F 72 °F 89 °F (2010)
Min Temperature 39 °F 39 °F 19 °F (1950)
Degree Days  
Heating Degree Days 16    
Moisture  
Dew Point 43 °F    
Average Humidity 75    
Maximum Humidity 93    
Minimum Humidity 52    
Precipitation  
Precipitation 0.09 in - - ()
Sea Level Pressure  
Sea Level Pressure 29.96 in    
Wind  
Wind Speed 17 mph (SSW)    
Max Wind Speed 26 mph    
Max Gust Speed 37 mph    
Visibility 10 miles    
Events      
Averages and records for this station are not official NWS values.
T = Trace of Precipitation, MM = Missing Value Source: NWS Daily Summary

Daily Weather History Graph

Daily Weather History Graph

Search for Another Location

Airport:

Trip Planner

Search our weather history database for the weather conditions in past years. The results will help you decide how hot, cold, wet, or windy it might be!

Date:

Astronomy

Sep. 30, 2013 Rise Set
Actual Time 6:57 AM PDT 6:44 PM PDT
Civil Twilight 6:29 AM PDT 7:12 PM PDT
Nautical Twilight 5:57 AM PDT 7:44 PM PDT
Astronomical Twilight 5:24 AM PDT 8:17 PM PDT
Moon 2:35 AM PDT (9/30) 4:21 PM PDT (9/30)
Length of Visible Light 12h 42m
Length of Day
11h 46m
Waning Crescent, 18% of the Moon is Illuminated
Sep 30
Waning Crescent
Oct 4
New
Oct 11
First Quarter
Oct 18
Full
Oct 26
Last Quarter

Hourly Weather History & Observations

Time (PDT) Temp. Windchill Dew Point Humidity Pressure Visibility Wind Dir Wind Speed Gust Speed Precip Events Conditions
12:15 AM 53.6 °F - 44.6 °F 72% 29.86 in 10.0 mi South 21.9 mph 36.8 mph N/A   Overcast
12:35 AM 53.6 °F - 44.6 °F 72% 29.85 in 10.0 mi South 21.9 mph 35.7 mph N/A   Overcast
12:55 AM 53.6 °F - 44.6 °F 72% 29.85 in 10.0 mi South 19.6 mph 28.8 mph N/A   Overcast
1:15 AM 53.6 °F - 44.6 °F 72% 29.84 in 10.0 mi South 21.9 mph 35.7 mph N/A   Overcast
1:35 AM 51.8 °F - 46.4 °F 82% 29.84 in 10.0 mi South 23.0 mph 35.7 mph N/A   Overcast
1:55 AM 51.8 °F - 46.4 °F 82% 29.84 in 10.0 mi South 25.3 mph 35.7 mph N/A   Overcast
2:15 AM 51.8 °F - 46.4 °F 82% 29.85 in 10.0 mi South 23.0 mph 32.2 mph N/A   Overcast
2:35 AM 51.8 °F - 46.4 °F 82% 29.85 in 8.0 mi South 26.5 mph 32.2 mph N/A   Overcast
2:55 AM 50.0 °F - 46.4 °F 87% 29.84 in 10.0 mi South 24.2 mph 33.4 mph N/A   Mostly Cloudy
3:15 AM 51.8 °F - 46.4 °F 82% 29.84 in 10.0 mi SSW 25.3 mph 34.5 mph N/A   Overcast
3:35 AM 51.8 °F - 46.4 °F 82% 29.84 in 10.0 mi South 23.0 mph 32.2 mph N/A   Overcast
3:55 AM 51.8 °F - 46.4 °F 82% 29.84 in 10.0 mi South 24.2 mph 32.2 mph N/A   Overcast
4:15 AM 50.0 °F - 46.4 °F 87% 29.84 in 10.0 mi South 20.7 mph 31.1 mph N/A   Overcast
4:35 AM 50.0 °F - 46.4 °F 87% 29.85 in 10.0 mi South 23.0 mph 31.1 mph N/A   Overcast
4:55 AM 50.0 °F - 46.4 °F 87% 29.85 in 10.0 mi South 19.6 mph 31.1 mph N/A   Overcast
5:15 AM 50.0 °F - 46.4 °F 87% 29.85 in 10.0 mi South 25.3 mph 33.4 mph N/A   Overcast
5:35 AM 50.0 °F - 46.4 °F 87% 29.85 in 10.0 mi South 25.3 mph 35.7 mph N/A   Overcast
5:55 AM 50.0 °F - 46.4 °F 87% 29.87 in 10.0 mi South 21.9 mph 31.1 mph N/A   Overcast
6:15 AM 50.0 °F - 46.4 °F 87% 29.87 in 10.0 mi South 20.7 mph 29.9 mph N/A   Overcast
6:35 AM 50.0 °F - 46.4 °F 87% 29.88 in 10.0 mi South 21.9 mph 28.8 mph N/A   Overcast
6:55 AM 50.0 °F - 46.4 °F 87% 29.88 in 10.0 mi South 19.6 mph 27.6 mph N/A   Overcast
7:15 AM 48.2 °F - 46.4 °F 93% 29.90 in 5.0 mi SSW 17.3 mph 26.5 mph N/A   Mostly Cloudy
7:35 AM 48.2 °F - 44.6 °F 87% 29.92 in 3.0 mi SW 10.4 mph - 0.04 in   Overcast
7:55 AM 46.4 °F 40.7 °F 44.6 °F 93% 29.93 in 6.0 mi WSW 12.7 mph - 0.08 in   Overcast
8:15 AM 46.4 °F 41.5 °F 44.6 °F 93% 29.94 in 10.0 mi WSW 10.4 mph - N/A   Overcast
8:35 AM 48.2 °F - 44.6 °F 87% 29.95 in 9.0 mi SW 8.1 mph - 0.01 in   Overcast
8:55 AM 48.2 °F - 44.6 °F 87% 29.96 in 7.0 mi WSW 12.7 mph - 0.01 in   Mostly Cloudy
9:15 AM 48.2 °F - 44.6 °F 87% 29.97 in 5.0 mi SW 9.2 mph - N/A   Overcast
9:35 AM 50.0 °F - 46.4 °F 87% 29.98 in 10.0 mi Calm Calm - N/A   Overcast
9:55 AM 48.2 °F - 44.6 °F 87% 29.98 in 10.0 mi SSE 3.5 mph - N/A   Overcast
10:15 AM 50.0 °F - 46.4 °F 87% 29.99 in 10.0 mi Calm Calm - N/A   Overcast
10:35 AM 51.8 °F - 44.6 °F 76% 29.99 in 10.0 mi West 8.1 mph - N/A   Overcast
10:55 AM 51.8 °F - 46.4 °F 82% 29.99 in 10.0 mi West 9.2 mph - N/A   Overcast
11:15 AM 51.8 °F - 44.6 °F 76% 30.00 in 10.0 mi WSW 10.4 mph - N/A   Overcast
11:35 AM 51.8 °F - 44.6 °F 76% 30.00 in 10.0 mi West 12.7 mph - N/A   Overcast
11:55 AM 53.6 °F - 44.6 °F 72% 30.00 in 10.0 mi West 13.8 mph - N/A   Overcast
12:15 PM 53.6 °F - 44.6 °F 72% 30.00 in 10.0 mi WSW 16.1 mph 24.2 mph N/A   Overcast
12:35 PM 55.4 °F - 44.6 °F 67% 30.00 in 10.0 mi WSW 13.8 mph - N/A   Mostly Cloudy
12:55 PM 55.4 °F - 44.6 °F 67% 30.01 in 10.0 mi WSW 10.4 mph - N/A   Overcast
1:15 PM 57.2 °F - 44.6 °F 63% 30.01 in 10.0 mi SSW 10.4 mph - N/A   Overcast
1:35 PM 57.2 °F - 44.6 °F 63% 30.01 in 10.0 mi WSW 11.5 mph - N/A   Overcast
1:55 PM 57.2 °F - 42.8 °F 59% 30.00 in 10.0 mi WSW 8.1 mph - N/A   Overcast
2:15 PM 57.2 °F - 42.8 °F 59% 30.01 in 10.0 mi WSW 12.7 mph - N/A   Mostly Cloudy
2:35 PM 57.2 °F - 42.8 °F 59% 30.01 in 10.0 mi SW 11.5 mph - N/A   Overcast
2:55 PM 57.2 °F - 42.8 °F 59% 30.01 in 10.0 mi SW 10.4 mph 20.7 mph N/A   Overcast
3:15 PM 60.8 °F - 42.8 °F 52% 30.01 in 10.0 mi SW 15.0 mph 20.7 mph N/A   Mostly Cloudy
3:35 PM 57.2 °F - 42.8 °F 59% 30.01 in 10.0 mi SSW 16.1 mph - N/A   Overcast
3:55 PM 57.2 °F - 42.8 °F 59% 30.01 in 10.0 mi SSW 16.1 mph - N/A   Overcast
4:15 PM 60.8 °F - 42.8 °F 52% 30.01 in 10.0 mi SSW 19.6 mph 24.2 mph N/A   Mostly Cloudy
4:35 PM 59.0 °F - 42.8 °F 55% 30.01 in 10.0 mi SSW 12.7 mph 18.4 mph N/A   Scattered Clouds
4:55 PM 57.2 °F - 42.8 °F 59% 30.01 in 10.0 mi SW 13.8 mph - N/A   Mostly Cloudy
5:15 PM 57.2 °F - 42.8 °F 59% 30.01 in 10.0 mi SSW 13.8 mph - N/A   Mostly Cloudy
5:35 PM 55.4 °F - 42.8 °F 63% 30.01 in 10.0 mi SSW 13.8 mph - N/A   Mostly Cloudy
5:55 PM 55.4 °F - 42.8 °F 63% 30.01 in 10.0 mi SSW 11.5 mph - N/A   Scattered Clouds
6:15 PM 53.6 °F - 42.8 °F 67% 30.01 in 10.0 mi SSW 12.7 mph - N/A   Partly Cloudy
6:35 PM 51.8 °F - 42.8 °F 71% 30.02 in 10.0 mi SW 5.8 mph - N/A   Partly Cloudy
6:55 PM 50.0 °F - 41.0 °F 71% 30.02 in 10.0 mi South 5.8 mph - N/A   Partly Cloudy
7:15 PM 48.2 °F - 41.0 °F 76% 30.02 in 10.0 mi South 6.9 mph - N/A   Partly Cloudy
7:35 PM 48.2 °F - 42.8 °F 82% 30.02 in 10.0 mi South 8.1 mph - N/A   Scattered Clouds
7:55 PM 50.0 °F - 41.0 °F 71% 30.02 in 10.0 mi SSW 12.7 mph - N/A   Overcast
8:15 PM 48.2 °F - 41.0 °F 76% 30.03 in 10.0 mi SW 8.1 mph - N/A   Scattered Clouds
8:35 PM 46.4 °F 42.4 °F 39.2 °F 76% 30.03 in 10.0 mi SSW 8.1 mph - N/A   Clear
8:55 PM 44.6 °F 43.1 °F 39.2 °F 81% 30.04 in 10.0 mi SSE 3.5 mph - N/A   Clear
9:15 PM 44.6 °F - 37.4 °F 76% 30.04 in 10.0 mi Calm Calm - N/A   Partly Cloudy
9:35 PM 46.4 °F 45.2 °F 35.6 °F 66% 30.04 in 10.0 mi SW 3.5 mph - N/A   Clear
9:55 PM 44.6 °F 41.4 °F 33.8 °F 66% 30.05 in 10.0 mi SSW 5.8 mph - N/A   Clear
10:15 PM 42.8 °F 38.6 °F 33.8 °F 70% 30.05 in 10.0 mi SSW 6.9 mph - N/A   Clear
10:35 PM 41.0 °F 35.8 °F 33.8 °F 76% 30.05 in 10.0 mi SW 8.1 mph - N/A   Partly Cloudy
10:55 PM 39.2 °F 33.6 °F 33.8 °F 81% 30.04 in 10.0 mi SW 8.1 mph - N/A   Partly Cloudy
11:15 PM 41.0 °F 37.1 °F 33.8 °F 76% 30.05 in 10.0 mi WSW 5.8 mph - N/A   Mostly Cloudy
11:35 PM 42.8 °F - 33.8 °F 70% 30.03 in 10.0 mi Calm Calm - N/A   Overcast
11:55 PM 42.8 °F - 35.6 °F 76% 30.03 in 10.0 mi Calm Calm - N/A   Overcast